Weather in Medvezhyegorsk

Russia / Republic of Karelia     62°54′53″N   34°28′23″E
temp.,
°C
wind,
m/s
gust,
m/s
humid.,
%
clouds,
%
prec.,
mm/h
press.,
hPa
HPBL,
m
23 september, thu
thu2300:00+2ese22910 0.0 102119
03:00+1ese11965 0.0 101914
06:00+1ese259819 0.0 1018110
09:00+5se3892100 0.0 1016425
12:00+7sse41090100 0.0 1014725
15:00+8sse41090100 0.3 1012934
18:00+8sse41089100 0.4 1010833
21:00+7sse51192100 0.6 1009750
24 september, fri
fri2400:00+7se41294100 0.0 1008627
03:00+7ese51194100 0.1 1005678
06:00+7ese41196100 0.3 1004692
09:00+8se41095100 0.8 1004761
12:00+10se598899 0.7 1003817
15:00+10se4886100 1.4 1003935
18:00+9se3891100 0.6 1003487
21:00+8se399394 0.9 1004443
25 september, sat
sat2500:00+7se399570 0.4 1004415
03:00+7se389696 0.9 1004368
06:00+6se389794 0.5 1004360
09:00+7se4996100 1.1 1004569
12:00+8se4889100 0.7 1004888
15:00+8sse4788100 1.4 10051053
18:00+7se3794100 0.4 1006463
21:00+7ese3896100 1.5 1007489
26 september, sun
sun2600:00+7ene2497100 0.6 1008209
03:00+7ene1396100 0.9 1010102
06:00+7ene129583 0.1 101339
09:00+8ne259399 0.1 1015182
12:00+10nne348174 0.1 1018479
15:00+12nne347179 0.1 1021909
18:00+9nne388862 0.1 1023272
21:00+6nne28966 0.1 1026183
27 september, mon
mon2700:00+5n27978 0.0 1028151
03:00+5n289725 0.0 1029186
06:00+7nne3897100 0.0 1030307
09:00+8ne2794100 0.0 1031352
12:00+10ene248198 0.0 1033571
15:00+11ene237584 0.1 1033722
18:00+9ne228654 0.1 103459
21:00+9e128696 0.1 103564